WAT721 KAUS-KSJC

Flight info

Callsign WAT721
Flight time N/A
Altitude 30000
Route AEROZ2 SJT ABQ NAVJO/N0497F320 DEANN WINEN KITTN KATTS KNGRY RAZRR5
Aircraft B77L/H-SDE1E2E3FGHIJ2J3J4J5M1RWXY/LB1D1

Departure

Time N/A
Airport Austin Bergstrom International Airport (KAUS)

Arrival

Time 2026-05-05 01:10
Airport Norman Y. Mineta San Jose International Airport (KSJC)
Time Latitude Longitude Altitude Speed Heading
2026-05-05 00:44 37.42138 -119.13700 29677 ft 500 kts 255°
2026-05-05 00:44 37.40302 -119.22146 29721 ft 502 kts 254°
2026-05-05 00:45 37.38355 -119.30517 29754 ft 502 kts 253°
2026-05-05 00:45 37.36339 -119.38900 29736 ft 499 kts 252°
2026-05-05 00:45 37.35334 -119.43058 29275 ft 494 kts 253°
2026-05-05 00:46 37.34339 -119.47175 28614 ft 490 kts 253°
2026-05-05 00:46 37.33357 -119.51240 27993 ft 484 kts 252°
2026-05-05 00:46 37.32380 -119.55282 27233 ft 483 kts 252°
2026-05-05 00:46 37.31407 -119.59305 26648 ft 478 kts 252°
2026-05-05 00:47 37.30454 -119.63241 26637 ft 467 kts 252°
2026-05-05 00:47 37.29494 -119.67194 26495 ft 479 kts 252°
2026-05-05 00:47 37.28514 -119.71225 26284 ft 486 kts 252°
2026-05-05 00:47 37.27538 -119.75232 26078 ft 485 kts 252°
2026-05-05 00:48 37.26557 -119.79257 25848 ft 481 kts 252°
2026-05-05 00:48 37.25579 -119.83259 25627 ft 478 kts 252°
2026-05-05 00:48 37.24612 -119.87214 25415 ft 467 kts 252°
2026-05-05 00:48 37.23671 -119.91059 25205 ft 456 kts 252°
2026-05-05 00:49 37.22760 -119.94819 24993 ft 445 kts 254°
2026-05-05 00:49 37.22117 -119.98583 24576 ft 440 kts 261°
2026-05-05 00:49 37.21726 -120.02373 24177 ft 436 kts 264°
2026-05-05 00:49 37.21414 -120.06143 23779 ft 433 kts 264°
2026-05-05 00:50 37.21100 -120.09880 23321 ft 430 kts 263°
2026-05-05 00:50 37.20761 -120.13541 22874 ft 426 kts 263°
2026-05-05 00:50 37.20393 -120.17208 22455 ft 422 kts 262°
2026-05-05 00:50 37.20010 -120.20834 22051 ft 417 kts 262°
2026-05-05 00:51 37.19624 -120.24415 21649 ft 413 kts 262°
2026-05-05 00:51 37.19239 -120.27960 21266 ft 408 kts 262°
2026-05-05 00:51 37.18858 -120.31473 20885 ft 404 kts 262°
2026-05-05 00:51 37.18482 -120.34942 20508 ft 399 kts 262°
2026-05-05 00:52 37.18110 -120.38371 20133 ft 395 kts 262°
2026-05-05 00:52 37.17738 -120.41767 19764 ft 391 kts 262°
2026-05-05 00:52 37.17372 -120.45078 19398 ft 387 kts 262°
2026-05-05 00:52 37.17003 -120.48404 19037 ft 383 kts 262°
2026-05-05 00:53 37.16637 -120.51689 18679 ft 379 kts 262°
2026-05-05 00:53 37.16273 -120.54945 18323 ft 375 kts 262°
2026-05-05 00:53 37.15913 -120.58164 17924 ft 372 kts 262°
2026-05-05 00:53 37.15555 -120.61356 17522 ft 368 kts 262°
2026-05-05 00:54 37.15200 -120.64524 17150 ft 365 kts 262°
2026-05-05 00:54 37.14848 -120.67653 16790 ft 362 kts 262°
2026-05-05 00:54 37.14497 -120.70762 16457 ft 359 kts 262°
2026-05-05 00:54 37.14153 -120.73809 16125 ft 358 kts 262°
2026-05-05 00:55 37.13804 -120.76906 15774 ft 360 kts 262°
2026-05-05 00:55 37.13458 -120.80026 15393 ft 360 kts 262°
2026-05-05 00:55 37.13117 -120.83124 15017 ft 358 kts 262°
2026-05-05 00:55 37.12777 -120.86198 14633 ft 354 kts 262°
2026-05-05 00:56 37.12441 -120.89234 14262 ft 350 kts 263°
2026-05-05 00:56 37.12107 -120.92234 13905 ft 347 kts 263°
2026-05-05 00:56 37.11774 -120.95225 13505 ft 346 kts 262°
2026-05-05 00:56 37.11440 -120.98204 13121 ft 345 kts 262°
2026-05-05 00:57 37.11107 -121.01174 12753 ft 343 kts 262°
2026-05-05 00:57 37.10781 -121.04081 12383 ft 339 kts 262°
2026-05-05 00:57 37.10453 -121.06988 12032 ft 335 kts 262°
2026-05-05 00:57 37.10128 -121.09875 11692 ft 334 kts 262°
2026-05-05 00:58 37.09836 -121.12753 11378 ft 330 kts 267°
2026-05-05 00:58 37.09991 -121.15584 11053 ft 324 kts 279°
2026-05-05 00:58 37.10358 -121.18359 10691 ft 321 kts 279°
2026-05-05 00:58 37.10723 -121.21102 10346 ft 318 kts 279°
2026-05-05 00:59 37.11068 -121.23816 10018 ft 314 kts 278°
2026-05-05 00:59 37.11393 -121.26492 9643 ft 304 kts 278°
2026-05-05 00:59 37.11694 -121.29044 9296 ft 288 kts 278°
2026-05-05 00:59 37.11970 -121.31431 8995 ft 275 kts 278°
2026-05-05 01:00 37.12241 -121.33790 8741 ft 273 kts 278°
2026-05-05 01:00 37.12510 -121.36152 8461 ft 274 kts 278°
2026-05-05 01:00 37.12779 -121.38515 8174 ft 274 kts 278°
2026-05-05 01:00 37.13044 -121.40862 7871 ft 270 kts 278°
2026-05-05 01:01 37.13304 -121.43177 7565 ft 267 kts 278°
2026-05-05 01:01 37.13563 -121.45484 7269 ft 267 kts 278°
2026-05-05 01:01 37.13819 -121.47779 6983 ft 264 kts 278°
2026-05-05 01:01 37.14069 -121.50018 6693 ft 262 kts 278°
2026-05-05 01:02 37.14323 -121.52308 6403 ft 263 kts 278°
2026-05-05 01:02 37.14571 -121.54541 6093 ft 261 kts 278°
2026-05-05 01:02 37.14818 -121.56769 5776 ft 257 kts 278°
2026-05-05 01:02 37.15064 -121.58984 5494 ft 257 kts 278°
2026-05-05 01:03 37.15309 -121.61203 5219 ft 255 kts 278°
2026-05-05 01:03 37.15550 -121.63386 4943 ft 251 kts 278°
2026-05-05 01:03 37.15789 -121.65551 4680 ft 250 kts 278°
2026-05-05 01:03 37.16027 -121.67710 4413 ft 250 kts 278°
2026-05-05 01:04 37.16288 -121.69841 4138 ft 242 kts 285°
2026-05-05 01:04 37.18094 -121.72936 3985 ft 204 kts 314°
2026-05-05 01:04 37.19100 -121.74125 4024 ft 196 kts 317°
2026-05-05 01:05 37.20092 -121.75234 3981 ft 185 kts 317°
2026-05-05 01:05 37.21045 -121.76282 3874 ft 183 kts 317°
2026-05-05 01:05 37.21994 -121.77322 3627 ft 178 kts 317°
2026-05-05 01:05 37.22916 -121.78329 3391 ft 173 kts 317°
2026-05-05 01:06 37.23808 -121.79305 3168 ft 169 kts 317°
2026-05-05 01:06 37.24697 -121.80282 2950 ft 169 kts 316°
2026-05-05 01:06 37.25574 -121.81244 2746 ft 166 kts 317°
2026-05-05 01:06 37.26453 -121.82207 2529 ft 168 kts 316°
2026-05-05 01:07 37.27321 -121.83159 2270 ft 167 kts 317°
2026-05-05 01:07 37.28183 -121.84104 2051 ft 162 kts 317°
2026-05-05 01:07 37.28988 -121.84988 1824 ft 145 kts 317°
2026-05-05 01:07 37.29722 -121.85791 1600 ft 133 kts 317°
2026-05-05 01:08 37.30403 -121.86530 1386 ft 131 kts 319°
2026-05-05 01:08 37.31088 -121.87286 1357 ft 133 kts 318°
2026-05-05 01:08 37.31807 -121.88091 1204 ft 143 kts 317°
2026-05-05 01:08 37.32547 -121.88914 909 ft 141 kts 320°
2026-05-05 01:09 37.33264 -121.89692 652 ft 136 kts 320°
2026-05-05 01:09 37.33975 -121.90452 505 ft 132 kts 318°
2026-05-05 01:09 37.34651 -121.91217 333 ft 129 kts 319°
2026-05-05 01:09 37.35254 -121.91878 166 ft 127 kts 319°
2026-05-05 01:10 37.35896 -121.92585 65 ft 116 kts 319°
2026-05-05 01:10 37.36429 -121.93161 57 ft 81 kts 319°
2026-05-05 01:10 37.36736 -121.93497 49 ft 36 kts 319°
2026-05-05 01:10 37.36887 -121.93577 55 ft 12 kts 11°
2026-05-05 01:11 37.36924 -121.93554 52 ft 0 kts 40°
2026-05-05 01:12 37.36953 -121.93517 51 ft 15 kts 47°
2026-05-05 01:13 37.37026 -121.93415 51 ft 16 kts 48°
2026-05-05 01:13 37.37073 -121.93323 49 ft 11 kts 84°
2026-05-05 01:13 37.37022 -121.93236 48 ft 16 kts 137°
2026-05-05 01:13 37.36929 -121.93136 50 ft 18 kts 138°
2026-05-05 01:14 37.36838 -121.93034 48 ft 18 kts 139°
2026-05-05 01:14 37.36742 -121.92934 49 ft 18 kts 141°
2026-05-05 01:14 37.36650 -121.92829 54 ft 18 kts 137°
2026-05-05 01:14 37.36542 -121.92710 54 ft 22 kts 138°
2026-05-05 01:15 37.36428 -121.92585 62 ft 22 kts 140°
2026-05-05 01:15 37.36314 -121.92459 55 ft 22 kts 139°
2026-05-05 01:15 37.36197 -121.92335 55 ft 22 kts 138°
2026-05-05 01:15 37.36084 -121.92207 56 ft 22 kts 139°
2026-05-05 01:16 37.35968 -121.92083 62 ft 22 kts 139°
2026-05-05 01:16 37.35853 -121.91958 64 ft 22 kts 138°
2026-05-05 01:16 37.35738 -121.91834 62 ft 22 kts 140°
2026-05-05 01:16 37.35625 -121.91709 64 ft 22 kts 138°
2026-05-05 01:17 37.35527 -121.91600 63 ft 16 kts 139°
2026-05-05 01:17 37.35478 -121.91521 63 ft 10 kts 80°
2026-05-05 01:17 37.35516 -121.91474 62 ft 6 kts 44°
2026-05-05 01:17 37.35524 -121.91463 65 ft 0 kts 45°